Location: Newark
(43.5831°N, 21.3381°E)
Time: 12:28:39
(UTC+00:00)

Envisat - Pass Details

Date: 13 December 2019
Orbit: 764 x 766 km, 98.1° (Epoch: 18 January)

Event Time Altitude Azimuth Distance (km) Brightness Sun altitude
Rises 04:28:32 0° 25° (NNE) 3,242 6.3 -15.7°
Reaches altitude 10° 04:31:14 10° 38° (NE) 2,310 5.7 -15.2°
Maximum altitude 04:35:25 26° 94° (E) 1,493 5.4 -14.5°
Drops below altitude 10° 04:39:35 10° 149° (SSE) 2,295 6.2 -13.8°
Sets 04:42:15 0° 162° (SSE) 3,216 6.8 -13.4°
